Date String (YYYY-MM-DD hh:mm:ss) UTC,Instrument flags,Ambient pressure (hPa),Sample flow (lpm),Bypass flow (lpm),Sample temperature (°C),Ambient temperature (°C),ASC tube jacket temperature (°C),LED temperature (°C),Box temperature (°C),Sample RH (%),Span deviation,Mass concentration (μg/m³),Mass concentration (μg/m³),Mass concentration (μg/m³)
DateTimeUTC,F1_M11,P_M11,Q1_M11,Q2_M11,T1_M11,T2_M11,T3_M11,T4_M11,T5_M11,U1_M11,ZSPAN_M11,X0_M11,X2_M11,X1_M11
2022-12-19 00:00:00,,0819.1,4.95,0.00,23.2,21.8,00.0,32.1,24.9,06.3,0002.9,0016.70,0007.16,0006.15
2022-12-19 00:01:00,,0819.1,5.03,0.00,23.2,21.8,00.0,32.1,24.9,06.3,0002.9,0015.84,0007.22,0006.23
2022-12-19 00:02:00,,0819.1,5.01,0.00,23.2,21.8,00.0,32.0,24.9,06.1,0003.2,0017.24,0007.28,0006.30
2022-12-19 00:03:00,,0819.1,4.96,0.00,23.2,21.9,00.0,32.1,24.9,05.8,0003.4,0017.27,0007.32,0006.35
2022-12-19 00:04:00,,0819.1,5.03,0.00,23.2,21.9,00.0,32.0,24.9,05.7,0003.4,0017.01,0007.35,0006.38
2022-12-19 00:05:00,,0819.1,4.98,0.00,23.2,21.9,00.0,32.0,24.9,05.7,0003.3,0017.25,0007.34,0006.39
2022-12-19 00:06:00,,0819.1,5.01,0.00,23.2,21.9,00.0,32.0,24.9,05.7,0003.4,0017.03,0007.33,0006.37
2022-12-19 00:07:00,,0819.1,5.03,0.00,23.2,21.8,00.0,32.0,24.9,05.6,0003.2,0016.62,0007.18,0006.25
2022-12-19 00:08:00,,0819.1,4.96,0.00,23.2,21.8,00.0,32.0,24.9,05.4,0003.0,0016.64,0006.99,0006.11
2022-12-19 00:09:00,,0819.1,5.03,0.00,23.2,21.8,00.0,32.0,24.9,05.4,0002.7,0017.67,0006.78,0005.95
2022-12-19 00:10:00,,0819.1,4.98,0.00,23.1,21.8,00.0,32.0,24.9,05.4,0002.3,0017.47,0006.60,0005.83
2022-12-19 00:11:00,,0819.1,5.02,0.00,23.2,21.8,00.0,32.0,24.9,05.3,0002.0,0017.32,0006.45,0005.69
2022-12-19 00:12:00,,0819.1,5.02,0.00,23.2,21.8,00.0,32.0,24.9,05.4,0002.4,0017.63,0006.37,0005.58
2022-12-19 00:13:00,,0819.2,4.95,0.00,23.2,21.8,00.0,32.0,24.9,05.1,0002.5,0015.65,0006.23,0005.45
2022-12-19 00:14:00,,0819.1,5.03,0.00,23.1,21.8,00.0,32.0,24.9,05.1,0002.4,0015.13,0006.06,0005.33
2022-12-19 00:15:00,,0819.1,5.02,0.00,23.1,21.8,00.0,32.0,24.9,05.1,0001.9,0015.10,0005.97,0005.27
2022-12-19 00:16:00,,0819.2,4.97,0.00,23.2,21.8,00.0,32.0,24.9,05.2,0001.6,0014.89,0005.87,0005.17
2022-12-19 00:17:00,,0819.1,5.04,0.00,23.2,21.8,00.0,32.0,24.9,05.2,0001.6,0014.84,0005.77,0005.10
2022-12-19 00:18:00,,0819.2,4.97,0.00,23.1,21.8,00.0,32.0,24.9,05.1,0001.6,0014.59,0005.71,0005.02
2022-12-19 00:19:00,,0819.1,5.01,0.00,23.1,21.8,00.0,32.0,24.9,05.1,0001.2,0014.25,0005.66,0004.95
2022-12-19 00:20:00,,0819.1,5.03,0.00,23.1,21.8,00.0,32.0,24.9,05.0,0001.3,0012.90,0005.59,0004.88
2022-12-19 00:21:00,,0819.1,4.95,0.00,23.1,21.8,00.0,32.0,24.9,05.0,0001.2,0012.26,0005.53,0004.80
2022-12-19 00:22:00,,0819.1,5.03,0.00,23.2,21.8,00.0,32.0,24.9,04.9,0001.4,0012.45,0005.44,0004.72
2022-12-19 00:23:00,,0819.1,5.03,0.00,23.1,21.8,00.0,32.0,24.9,04.8,0001.3,0011.82,0005.28,0004.58
2022-12-19 00:24:00,,0819.1,4.97,0.00,23.2,21.8,00.0,32.0,25.0,04.8,0000.9,0011.53,0005.15,0004.49
2022-12-19 00:25:00,,0819.0,5.04,0.00,23.2,21.8,00.0,32.0,25.0,04.9,0000.6,0011.35,0005.10,0004.45
2022-12-19 00:26:00,,0819.1,4.98,0.00,23.1,21.8,00.0,32.0,25.0,04.9,0000.8,0011.13,0005.05,0004.42
2022-12-19 00:27:00,,0819.1,5.01,0.00,23.2,21.8,00.0,32.0,25.0,04.9,0001.2,0011.53,0005.03,0004.38
2022-12-19 00:28:00,,0819.1,5.02,0.00,23.1,21.8,00.0,32.0,25.0,05.0,0001.3,0011.28,0004.96,0004.33
2022-12-19 00:29:00,,0819.1,4.94,0.00,23.1,21.8,00.0,32.0,24.9,04.9,0001.7,0010.95,0004.92,0004.31
2022-12-19 00:30:00,,0819.1,5.02,0.00,23.1,21.8,00.0,32.0,24.9,04.6,0002.1,0010.34,0004.79,0004.19
2022-12-19 00:31:00,,0819.1,5.03,0.00,23.1,21.8,00.0,32.0,24.9,04.8,0002.3,0010.11,0004.73,0004.11
2022-12-19 00:32:00,,0819.1,4.95,0.00,23.1,21.8,00.0,32.0,24.9,04.8,0002.6,0010.00,0004.73,0004.10
2022-12-19 00:33:00,,0819.1,5.04,0.00,23.2,21.8,00.0,32.0,24.9,04.6,0002.9,0009.30,0004.62,0004.03
2022-12-19 00:34:00,,0819.1,5.00,0.00,23.1,21.8,00.0,32.0,24.9,04.4,0003.0,0009.15,0004.52,0003.95
2022-12-19 00:35:00,,0819.1,4.96,0.00,23.1,21.8,00.0,32.0,24.9,04.5,0003.6,0009.04,0004.44,0003.86
2022-12-19 00:36:00,,0819.1,5.04,0.00,23.1,21.8,00.0,32.0,24.9,04.7,0004.1,0009.31,0004.43,0003.84
2022-12-19 00:37:00,,0819.1,4.98,0.00,23.1,21.8,00.0,32.0,24.9,04.7,0002.7,0009.12,0004.37,0003.79
2022-12-19 00:38:00,,0819.1,4.99,0.00,23.1,21.7,00.0,32.0,24.9,04.6,0001.9,0008.44,0004.27,0003.71
2022-12-19 00:39:00,,0819.1,5.02,0.00,23.1,21.7,00.0,32.0,24.9,04.5,0000.0,0008.40,0004.14,0003.58
2022-12-19 00:40:00,,0819.1,4.97,0.00,23.1,21.7,00.0,32.0,24.9,04.5,0000.0,0008.24,0004.00,0003.46
2022-12-19 00:41:00,,0819.1,5.00,0.00,23.1,21.7,00.0,32.0,24.9,04.5,0000.0,0008.03,0003.92,0003.42
2022-12-19 00:42:00,,0819.2,5.01,0.00,23.1,21.7,00.0,32.0,24.8,04.6,0000.0,0008.02,0003.83,0003.36
2022-12-19 00:43:00,,0819.1,4.95,0.00,23.1,21.7,00.0,32.0,24.8,04.6,0000.0,0008.02,0003.70,0003.23
2022-12-19 00:44:00,,0819.2,5.03,0.00,23.1,21.6,00.0,32.0,24.8,04.6,0000.0,0008.42,0003.67,0003.17
2022-12-19 00:45:00,,0819.1,5.00,0.00,23.0,21.6,00.0,32.0,24.8,04.6,0000.0,0008.52,0003.67,0003.15
2022-12-19 00:46:00,,0819.2,4.98,0.00,23.0,21.6,00.0,31.9,24.8,04.5,0000.0,0008.58,0003.66,0003.10
2022-12-19 00:47:00,,0819.1,5.04,0.00,23.0,21.6,00.0,31.9,24.7,04.5,0000.0,0008.58,0003.57,0002.92
2022-12-19 00:48:00,,0819.1,4.95,0.00,23.0,21.6,00.0,31.9,24.7,04.4,0000.0,0008.54,0003.43,0002.68
2022-12-19 00:49:00,,0819.2,5.03,0.00,23.0,21.5,00.0,31.9,24.7,04.5,0000.0,0008.34,0003.33,0002.53
2022-12-19 00:50:00,,0819.2,5.01,0.00,23.0,21.5,00.0,31.9,24.7,04.5,0000.0,0007.80,0003.23,0002.44
2022-12-19 00:51:00,,0819.2,4.96,0.00,22.9,21.5,00.0,31.9,24.7,04.6,0000.0,0007.55,0003.17,0002.35
2022-12-19 00:52:00,,0819.2,5.03,0.00,22.9,21.5,00.0,31.9,24.6,04.6,0000.0,0007.53,0003.14,0002.28
2022-12-19 00:53:00,,0819.2,4.98,0.00,22.9,21.4,00.0,31.9,24.6,04.5,0000.0,0007.41,0003.09,0002.20
2022-12-19 00:54:00,,0819.3,4.99,0.00,22.9,21.4,00.0,31.9,24.6,04.5,0000.0,0006.88,0002.91,0002.09
2022-12-19 00:55:00,,0819.3,5.04,0.00,22.9,21.4,00.0,31.8,24.6,04.5,0000.0,0007.40,0002.88,0002.03
2022-12-19 00:56:00,,0819.3,4.95,0.00,22.9,21.4,00.0,31.8,24.6,04.5,0000.0,0007.37,0002.82,0002.01
2022-12-19 00:57:00,,0819.3,5.02,0.00,22.9,21.4,00.0,31.8,24.6,04.4,0000.0,0007.37,0002.77,0001.99
2022-12-19 00:58:00,,0819.2,5.02,0.00,22.9,21.4,00.0,31.8,24.6,04.4,0000.0,0006.66,0002.70,0001.95
2022-12-19 00:59:00,,0819.3,4.96,0.00,22.9,21.4,00.0,31.8,24.5,04.4,0000.0,0006.07,0002.63,0001.92
